MST,Max TemperatureF,Mean TemperatureF,Min TemperatureF,Max Dew PointF,MeanDew PointF,Min DewpointF,Max Humidity, Mean Humidity, Min Humidity, Max Sea Level PressureIn, Mean Sea Level PressureIn, Min Sea Level PressureIn, Max VisibilityMiles, Mean VisibilityMiles, Min VisibilityMiles, Max Wind SpeedMPH, Mean Wind SpeedMPH, Max Gust SpeedMPH,PrecipitationIn, CloudCover, Events, WindDirDegrees
2013-1-1,25,15,4,17,9,2,92,80,68,30.31,30.25,30.15,,,,16,8,20,0.00,,,320
2013-1-2,30,18,5,19,9,2,83,73,63,30.41,30.31,30.23,,,,21,12,25,0.00,,,324
2013-1-3,29,16,3,17,7,-2,86,72,58,30.54,30.42,30.33,,,,20,8,23,0.00,,,279
2013-1-4,37,20,2,19,7,-5,84,58,32,30.38,30.24,30.03,,,,20,8,23,0.00,,,247
2013-1-5,41,27,13,24,13,3,80,64,47,30.41,30.24,30.02,,,,30,14,35,0.00,,,336
2013-1-6,41,25,9,24,16,4,84,66,47,30.40,30.24,30.01,,,,31,15,36,0.00,,,237
2013-1-7,59,44,28,28,22,18,85,56,26,29.99,29.91,29.78,,,,21,10,28,0.00,,,238
2013-1-8,53,38,23,25,20,13,88,55,21,30.21,29.97,29.78,,,,21,9,25,0.00,,,327
2013-1-9,55,39,22,30,22,16,84,53,22,30.41,30.29,30.11,,,,15,5,18,0.00,,,235
2013-1-10,51,42,32,40,34,26,96,81,66,30.07,29.77,29.50,,,,29,9,64,0.02,,,229
2013-1-11,54,37,19,27,11,-4,59,36,13,29.80,29.53,29.34,,,,40,19,51,0.00,,,268
2013-1-12,25,17,9,9,4,-1,91,67,42,30.13,30.02,29.83,,,,16,7,20,0.00,,,60
2013-1-13,24,13,2,11,8,1,88,71,54,30.26,30.21,30.14,,,,10,5,14,0.00,,,149
2013-1-14,27,20,13,17,13,10,92,76,60,30.30,30.22,30.14,,,,22,13,26,0.02,,,198
2013-1-15,31,18,5,13,6,0,92,60,27,30.26,30.21,30.16,,,,18,10,23,0.00,,,319
2013-1-16,52,37,22,22,18,10,68,49,30,30.37,30.21,30.11,,,,25,14,30,0.00,,,347
2013-1-17,51,35,19,22,19,14,77,52,27,30.51,30.40,30.24,,,,18,9,22,0.00,,,247
2013-1-18,61,43,24,22,14,7,69,40,11,30.22,30.11,29.99,,,,18,8,23,0.00,,,279
2013-1-19,58,43,27,14,8,4,50,32,13,30.28,30.15,29.98,,,,25,12,31,0.00,,,330
2013-1-20,54,36,17,16,12,6,84,50,16,30.32,30.17,30.08,,,,35,13,41,0.00,,,29
2013-1-21,50,35,19,24,19,15,96,61,26,30.34,30.20,30.07,,,,14,6,16,0.00,,,228
2013-1-22,66,44,22,16,9,-2,58,33,7,30.16,30.08,30.00,,,,18,8,21,0.00,,,248
2013-1-23,75,49,22,20,5,-11,75,40,4,30.18,30.11,30.00,,,,16,8,21,0.00,,,274
2013-1-24,49,33,16,24,20,14,84,58,31,30.19,30.08,29.98,,,,16,6,20,0.00,,,223
2013-1-25,59,46,32,24,22,16,64,46,28,30.22,30.12,30.03,,,,21,10,24,0.00,,,237
2013-1-26,66,46,26,42,31,20,77,52,26,30.02,29.86,29.64,,,,32,11,39,0.00,,,221
2013-1-27,67,49,30,40,33,27,78,53,28,29.73,29.64,29.57,,,,25,10,33,0.00,,,268
2013-1-28,65,47,29,33,28,25,82,53,24,29.70,29.60,29.51,,,,35,15,44,0.00,,,242
2013-1-29,35,26,17,30,22,10,92,80,67,29.93,29.68,29.55,,,,30,15,36,0.00,,,16
2013-1-30,41,27,12,19,13,7,80,55,30,30.07,29.99,29.91,,,,23,11,28,0.00,,,292
2013-1-31,47,34,20,23,19,16,84,62,39,30.24,30.10,29.93,,,,20,11,25,0.00,,,251